Weather History for Hot Springs, VA

Change the Weather History Date:

Monday, August 19, 2013

  Actual Average Record
Temperature  
Mean Temperature 39 °F -  
Max Temperature 68 °F 74 °F 82 °F (2007)
Min Temperature 10 °F 59 °F 10 °F (2013)
Degree Days  
Heating Degree Days 26    
Moisture  
Dew Point 50 °F    
Average Humidity 98    
Maximum Humidity 100    
Minimum Humidity 88    
Precipitation  
Precipitation 0.08 in - - ()
Sea Level Pressure  
Sea Level Pressure 30.28 in    
Wind  
Wind Speed 7 mph (WSW)    
Max Wind Speed 15 mph    
Max Gust Speed 17 mph    
Visibility 4 miles    
Events Fog , Rain    
Averages and records for this station are not official NWS values.
T = Trace of Precipitation, MM = Missing Value Source: NWS Daily Summary

Daily Weather History Graph

Daily Weather History Graph

Search for Another Location

Airport:

Trip Planner

Search our weather history database for the weather conditions in past years. The results will help you decide how hot, cold, wet, or windy it might be!

Date:

Astronomy

Aug. 19, 2013 Rise Set
Actual Time 6:38 AM EDT 8:06 PM EDT
Civil Twilight 6:10 AM EDT 8:34 PM EDT
Nautical Twilight 5:37 AM EDT 9:07 PM EDT
Astronomical Twilight 5:02 AM EDT 9:42 PM EDT
Moon 6:56 PM EDT (8/19) 4:56 AM EDT (8/19)
Length of Visible Light 14h 24m
Length of Day
13h 28m
Waxing Gibbous, 97% of the Moon is Illuminated
Aug 19
Waxing Gibbous
Aug 20
Full
Aug 28
Last Quarter
Sep 5
New
Sep 12
First Quarter

Hourly Weather History & Observations

Time (EDT) Temp. Windchill Dew Point Humidity Pressure Visibility Wind Dir Wind Speed Gust Speed Precip Events Conditions
12:15 AM 59.0 °F - 59.0 °F 100% 30.33 in 0.2 mi South 8.1 mph - N/A   Heavy Drizzle
12:35 AM 59.0 °F - 59.0 °F 100% 30.33 in 0.2 mi SSW 3.5 mph - N/A   Drizzle
12:55 AM 59.0 °F - 59.0 °F 100% 30.33 in 0.2 mi South 4.6 mph - N/A Fog Fog
1:15 AM 59.0 °F - 59.0 °F 100% 30.33 in 0.2 mi South 5.8 mph - N/A Rain Heavy Rain
1:35 AM 59.0 °F - 59.0 °F 100% 30.32 in 0.2 mi WSW 5.8 mph - N/A   Heavy Drizzle
2:15 AM 59.0 °F - 59.0 °F 100% 30.31 in 0.2 mi SW 6.9 mph - 0.01 in Rain Rain
2:35 AM 60.8 °F - 60.8 °F 100% 30.30 in 4.0 mi SW 5.8 mph - 0.01 in   Drizzle
2:55 AM 59.0 °F - 59.0 °F 100% 30.30 in 0.2 mi WSW 5.8 mph - N/A   Drizzle
3:15 AM 60.8 °F - 60.8 °F 100% 30.30 in 0.2 mi WSW 8.1 mph - N/A   Drizzle
3:35 AM 60.8 °F - 60.8 °F 100% 30.29 in 1.8 mi SW 11.5 mph - N/A Rain Light Rain
3:55 AM 60.8 °F - 60.8 °F 100% 30.29 in 0.5 mi WSW 9.2 mph - N/A Fog Fog
4:15 AM 60.8 °F - 60.8 °F 100% 30.28 in 0.2 mi SW 10.4 mph - N/A   Drizzle
4:35 AM 60.8 °F - 60.8 °F 100% 30.28 in 10.0 mi SW 10.4 mph - 0.01 in   Overcast
4:55 AM 59.0 °F - 59.0 °F 100% 30.28 in 0.2 mi West 11.5 mph - 0.01 in Rain Heavy Rain
5:15 AM 60.8 °F - 60.8 °F 100% 30.28 in 0.2 mi WSW 9.2 mph - 0.01 in Rain Light Rain
5:35 AM 60.8 °F - 60.8 °F 100% 30.28 in 0.2 mi WSW 11.5 mph - 0.02 in   Drizzle
5:55 AM 60.8 °F - 60.8 °F 100% 30.29 in 0.2 mi West 10.4 mph - N/A   Drizzle
6:15 AM 60.8 °F - 60.8 °F 100% 30.29 in 0.2 mi West 10.4 mph - N/A   Drizzle
6:35 AM 60.8 °F - 60.8 °F 100% 30.29 in 0.2 mi West 9.2 mph - 0.01 in   Drizzle
6:55 AM 60.8 °F - 60.8 °F 100% 30.30 in 0.2 mi West 11.5 mph 17.3 mph N/A Rain Light Rain
7:15 AM 60.8 °F - 60.8 °F 100% 30.30 in 0.2 mi West 11.5 mph - N/A   Drizzle
7:35 AM 60.8 °F - 60.8 °F 100% 30.29 in 0.2 mi West 12.7 mph - N/A   Drizzle
7:55 AM 60.8 °F - 60.8 °F 100% 30.29 in 0.2 mi West 12.7 mph - N/A   Light Drizzle
8:15 AM 60.8 °F - 60.8 °F 100% 30.29 in 0.2 mi West 9.2 mph - N/A   Light Drizzle
8:35 AM 60.8 °F - 60.8 °F 100% 30.28 in 0.2 mi West 10.4 mph - N/A   Drizzle
8:55 AM 60.8 °F - 60.8 °F 100% 30.28 in 0.2 mi West 15.0 mph - N/A   Drizzle
9:15 AM 60.8 °F - 60.8 °F 100% 30.28 in 0.2 mi West 15.0 mph - N/A   Light Drizzle
9:35 AM 23.0 °F 11.1 °F - N/A% 30.28 in 0.2 mi West 12.7 mph - N/A   Light Freezing Rain
9:55 AM 17.6 °F 5.7 °F 17.6 °F 100% 30.27 in 0.2 mi West 10.4 mph - N/A   Light Freezing Rain
10:15 AM 15.8 °F 2.1 °F 15.8 °F 100% 30.28 in 0.2 mi West 12.7 mph - N/A   Light Freezing Rain
10:35 AM 15.8 °F 2.1 °F 15.8 °F 100% 30.28 in 0.2 mi West 12.7 mph - N/A   Light Freezing Rain
10:55 AM 14.0 °F 2.0 °F 14.0 °F 100% 30.29 in 0.2 mi West 9.2 mph - N/A   Light Freezing Rain
11:15 AM 12.2 °F -1.0 °F 12.2 °F 100% 30.29 in 0.2 mi West 10.4 mph - N/A   Light Freezing Rain
11:35 AM 12.2 °F -0.2 °F 12.2 °F 100% 30.29 in 0.2 mi West 9.2 mph - N/A   Light Freezing Rain
11:55 AM 10.4 °F -1.5 °F 10.4 °F 100% 30.29 in 0.2 mi West 8.1 mph - N/A Fog Light Freezing Fog
12:15 PM 10.4 °F -0.4 °F 10.4 °F 100% 30.30 in 5.0 mi WNW 6.9 mph - N/A   Overcast
12:35 PM 10.4 °F -0.4 °F 10.4 °F 100% 30.29 in 10.0 mi West 6.9 mph - N/A   Overcast
12:55 PM 10.4 °F -0.4 °F 10.4 °F 100% 30.29 in 10.0 mi WNW 6.9 mph - N/A   Overcast
1:15 PM 10.4 °F -0.4 °F 10.4 °F 100% 30.29 in 7.0 mi West 6.9 mph - N/A   Overcast
1:35 PM 10.4 °F 0.8 °F 10.4 °F 100% 30.29 in 10.0 mi West 5.8 mph - N/A   Overcast
1:55 PM 10.4 °F 0.8 °F 10.4 °F 100% 30.29 in 10.0 mi WNW 5.8 mph - N/A   Overcast
2:15 PM 10.4 °F 4.0 °F 10.4 °F 100% 30.29 in 10.0 mi West 3.5 mph - N/A   Overcast
2:35 PM - - - N/A% - - North - - N/A   Unknown
2:55 PM 10.4 °F - 10.4 °F 100% 30.28 in 10.0 mi Calm Calm - N/A   Overcast
3:15 PM 15.8 °F - 15.8 °F 100% 30.27 in 10.0 mi Calm Calm - N/A   Overcast
3:35 PM 37.4 °F - 35.6 °F 93% 30.27 in 10.0 mi Calm Calm - N/A   Mostly Cloudy
3:55 PM 66.2 °F - 64.4 °F 94% 30.27 in 10.0 mi WNW 3.5 mph - N/A   Mostly Cloudy
4:15 PM 66.2 °F - 64.4 °F 94% 30.27 in 10.0 mi Calm Calm - N/A   Mostly Cloudy
4:35 PM 66.2 °F - 64.4 °F 94% 30.27 in 10.0 mi Calm Calm - N/A   Mostly Cloudy
4:55 PM 66.2 °F - 64.4 °F 94% 30.27 in 7.0 mi NNW 3.5 mph - N/A Rain Rain
5:15 PM 66.2 °F - 64.4 °F 94% 30.26 in 10.0 mi Calm Calm - 0.03 in   Light Drizzle
5:35 PM 66.2 °F - 64.4 °F 94% 30.26 in 10.0 mi Calm Calm - 0.03 in   Scattered Clouds
5:55 PM 66.2 °F - 66.2 °F 100% 30.26 in 10.0 mi South 4.6 mph - N/A   Scattered Clouds
6:15 PM 68.0 °F - 64.4 °F 88% 30.26 in 10.0 mi Calm Calm - N/A   Clear
6:35 PM 66.2 °F - 64.4 °F 94% 30.25 in 10.0 mi South 4.6 mph - N/A   Clear
6:55 PM 66.2 °F - 64.4 °F 94% 30.25 in 10.0 mi Calm Calm - N/A   Scattered Clouds
7:15 PM 66.2 °F - 64.4 °F 94% 30.26 in 10.0 mi WSW 3.5 mph - N/A   Scattered Clouds
7:35 PM 66.2 °F - 64.4 °F 94% 30.26 in 10.0 mi SW 4.6 mph - N/A   Scattered Clouds
7:55 PM 66.2 °F - 64.4 °F 94% 30.26 in 10.0 mi SW 4.6 mph - N/A   Scattered Clouds
8:15 PM 64.4 °F - 62.6 °F 94% 30.26 in 10.0 mi WSW 6.9 mph - N/A   Scattered Clouds
8:35 PM 62.6 °F - 62.6 °F 100% 30.26 in 10.0 mi WSW 8.1 mph - N/A   Clear
8:55 PM 64.4 °F - 62.6 °F 94% 30.27 in 10.0 mi WSW 8.1 mph - N/A   Clear
9:15 PM 62.6 °F - 62.6 °F 100% 30.27 in 10.0 mi WSW 9.2 mph - N/A   Scattered Clouds
9:35 PM 64.4 °F - 62.6 °F 94% 30.28 in 10.0 mi West 10.4 mph - N/A   Clear
9:55 PM 64.4 °F - 62.6 °F 94% 30.29 in 10.0 mi WSW 10.4 mph - N/A   Clear
10:15 PM 64.4 °F - 64.4 °F 100% 30.29 in 10.0 mi West 6.9 mph - N/A   Scattered Clouds
10:35 PM 64.4 °F - 64.4 °F 100% 30.29 in 2.5 mi West 6.9 mph - N/A   Mostly Cloudy
10:55 PM 64.4 °F - 64.4 °F 100% 30.29 in 0.2 mi West 6.9 mph - N/A Fog Fog
11:15 PM 62.6 °F - 62.6 °F 100% 30.29 in 0.5 mi West 4.6 mph - N/A Fog Fog
11:35 PM 62.6 °F - 62.6 °F 100% 30.29 in 0.5 mi West 4.6 mph - N/A Fog Fog
11:55 PM 62.6 °F - 62.6 °F 100% 30.29 in 1.8 mi West 3.5 mph - N/A   Mostly Cloudy